| time (UTC) | temp F | wind direction | speed knots | gust knots | rain 1hr in | rain 24hr in | rain mn in | humidity % | barometer mb |
| 20260505022041 | 38 | 292 | 0.0 | 0.0 | 0.00 | 0.07 | 0.07 | 90 | 2099.9 |
| 20260505020139 | 38 | 292 | 0.0 | 0.0 | 0.00 | 0.07 | 0.07 | 90 | 2099.3 |
| 20260505015138 | 38 | 292 | 0.0 | 0.0 | 0.00 | 0.07 | 0.07 | 88 | 2099.5 |
| 20260505013140 | 38 | 292 | 0.0 | 0.0 | 0.00 | 0.07 | 0.07 | 89 | 2099.1 |
| 20260505011140 | 38 | 292 | 0.0 | 0.0 | 0.00 | 0.07 | 0.07 | 88 | 2099.8 |
| 20260505011040 | 38 | 292 | 0.0 | 0.0 | 0.00 | 0.07 | 0.07 | 89 | 2099.7 |
| 20260505010040 | 38 | 273 | 1.7 | 2.6 | 0.01 | 0.07 | 0.07 | 89 | 2099.5 |
| 20260505005940 | 38 | 250 | 1.7 | 1.7 | 0.01 | 0.07 | 0.07 | 88 | 2099.5 |
| 20260505002940 | 38 | 112 | 0.0 | 0.0 | 0.07 | 0.07 | 0.07 | 86 | 2099.4 |
| 20260505001138 | 37 | 112 | 0.0 | 0.9 | 0.07 | 0.07 | 0.07 | 84 | 2100.4 |
| 20260505001040 | 37 | 112 | 0.0 | 0.9 | 0.07 | 0.07 | 0.07 | 83 | 2100.0 |
| 20260505000050 | 37 | 112 | 2.6 | 3.5 | 0.06 | 0.06 | 0.06 | 81 | 2100.4 |
| 20260504235138 | 38 | 112 | 3.5 | 3.5 | 0.06 | 0.06 | 0.05 | 76 | 2100.3 |
| 20260504235041 | 38 | 112 | 1.7 | 2.6 | 0.05 | 0.05 | 0.05 | 76 | 2100.5 |
| 20260504234138 | 40 | 337 | 0.0 | 0.9 | 0.03 | 0.03 | 0.03 | 69 | 2100.5 |
| 20260504233137 | 44 | 291 | 1.7 | 3.5 | 0.00 | 0.00 | 0.00 | 57 | 2099.5 |
| 20260504232140 | 45 | 185 | 0.9 | 3.5 | 0.00 | 0.00 | 0.00 | 50 | 2099.1 |
| 20260504232040 | 45 | 189 | 1.7 | 3.5 | 0.00 | 0.00 | 0.00 | 50 | 2098.7 |
| 20260504231037 | 47 | 202 | 1.7 | 2.6 | 0.00 | 0.00 | 0.00 | 47 | 2097.4 |
| 20260504230041 | 48 | 285 | 0.9 | 3.5 | 0.00 | 0.00 | 0.00 | 44 | 2096.8 |
| 20260504225038 | 50 | 126 | 0.9 | 2.6 | 0.00 | 0.00 | 0.00 | 40 | 2096.8 |
| 20260504224040 | 51 | 112 | 1.7 | 2.6 | 0.00 | 0.00 | 0.00 | 37 | 2096.4 |
| 20260504223940 | 51 | 103 | 0.9 | 3.5 | 0.00 | 0.00 | 0.00 | 37 | 2096.2 |
| 20260504222038 | 52 | 112 | 1.7 | 2.6 | 0.00 | 0.00 | 0.00 | 37 | 2096.8 |
| 20260504221039 | 52 | 119 | 1.7 | 3.5 | 0.00 | 0.00 | 0.00 | 36 | 2097.0 |
| 20260504220040 | 53 | 180 | 2.6 | 3.5 | 0.00 | 0.00 | 0.00 | 36 | 2096.9 |
| 20260504215039 | 53 | 126 | 0.9 | 2.6 | 0.00 | 0.00 | 0.00 | 38 | 2096.9 |
| 20260504214040 | 53 | 112 | 0.9 | 2.6 | 0.00 | 0.00 | 0.00 | 38 | 2096.8 |
| 20260504212039 | 54 | 121 | 2.6 | 3.5 | 0.00 | 0.00 | 0.00 | 37 | 2097.2 |
| 20260504211940 | 54 | 153 | 0.9 | 3.5 | 0.00 | 0.00 | 0.00 | 37 | 2097.0 |
| 20260504210937 | 54 | 173 | 0.9 | 1.7 | 0.00 | 0.00 | 0.00 | 36 | 2097.4 |
| 20260504205939 | 54 | 137 | 0.9 | 0.9 | 0.00 | 0.00 | 0.00 | 35 | 2097.2 |
| 20260504204937 | 54 | 112 | 3.5 | 5.2 | 0.00 | 0.00 | 0.00 | 37 | 2097.4 |
| 20260504204037 | 55 | 135 | 1.7 | 3.5 | 0.00 | 0.00 | 0.00 | 36 | 2097.4 |
| 20260504203039 | 54 | 114 | 3.5 | 7.0 | 0.00 | 0.00 | 0.00 | 37 | 2097.9 |
| 20260504202040 | 54 | 213 | 0.9 | 3.5 | 0.00 | 0.00 | 0.00 | 36 | 2097.9 |
| 20260504201138 | 53 | 135 | 0.0 | 1.7 | 0.00 | 0.00 | 0.00 | 37 | 2097.9 |
| 20260504201037 | 53 | 123 | 1.7 | 2.6 | 0.00 | 0.00 | 0.00 | 37 | 2097.9 |
| 20260504200040 | 53 | 234 | 0.9 | 2.6 | 0.00 | 0.00 | 0.00 | 37 | 2098.2 |
| 20260504195138 | 52 | 240 | 1.7 | 3.5 | 0.00 | 0.00 | 0.00 | 37 | 2098.4 |
| 20260504194140 | 53 | 191 | 1.7 | 4.3 | 0.00 | 0.00 | 0.00 | 36 | 2098.6 |
| 20260504193139 | 53 | 253 | 0.9 | 3.5 | 0.00 | 0.00 | 0.00 | 33 | 2098.4 |
| 20260504193039 | 53 | 176 | 1.7 | 3.5 | 0.00 | 0.00 | 0.00 | 32 | 2098.4 |
| 20260504192038 | 53 | 172 | 3.5 | 6.1 | 0.00 | 0.00 | 0.00 | 30 | 2098.6 |
| 20260504191940 | 53 | 295 | 0.9 | 2.6 | 0.00 | 0.00 | 0.00 | 29 | 2098.6 |
| 20260504191038 | 55 | 112 | 2.6 | 4.3 | 0.00 | 0.00 | 0.00 | 26 | 2098.2 |
| 20260504190937 | 56 | 112 | 2.6 | 4.3 | 0.00 | 0.00 | 0.00 | 25 | 2098.6 |
| 20260504185942 | 58 | 240 | 1.7 | 3.5 | 0.00 | 0.00 | 0.00 | 26 | 2098.4 |
| 20260504184940 | 59 | 158 | 2.6 | 4.3 | 0.00 | 0.00 | 0.00 | 26 | 2098.2 |
| 20260504183941 | 59 | 255 | 2.6 | 4.3 | 0.00 | 0.00 | 0.00 | 26 | 2098.4 |
| 20260504182939 | 58 | 111 | 5.2 | 7.0 | 0.00 | 0.00 | 0.00 | 23 | 2098.6 |
| 20260504180938 | 56 | 243 | 1.7 | 4.3 | 0.00 | 0.00 | 0.00 | 28 | 2099.1 |
| 20260504175939 | 55 | 221 | 3.5 | 5.2 | 0.00 | 0.00 | 0.00 | 29 | 2099.4 |
| 20260504175038 | 53 | 292 | 1.7 | 3.5 | 0.00 | 0.00 | 0.00 | 28 | 2099.5 |
| 20260504173137 | 52 | 292 | 3.5 | 6.1 | 0.00 | 0.00 | 0.00 | 28 | 2100.0 |
| 20260504172237 | 52 | 292 | 3.5 | 5.2 | 0.00 | 0.00 | 0.00 | 29 | 2100.7 |
| 20260504171237 | 52 | 290 | 3.5 | 7.0 | 0.00 | 0.00 | 0.00 | 29 | 2100.3 |
| 20260504170238 | 54 | 259 | 2.6 | 5.2 | 0.00 | 0.00 | 0.00 | 28 | 2100.3 |
| 20260504170137 | 54 | 272 | 3.5 | 6.1 | 0.00 | 0.00 | 0.00 | 28 | 2100.5 |
| 20260504160239 | 51 | 266 | 5.2 | 8.7 | 0.00 | 0.00 | 0.00 | 36 | 2101.6 |
| 20260504140238 | 44 | 270 | 1.7 | 2.6 | 0.00 | 0.00 | 0.00 | 42 | 2102.6 |
| 20260504120239 | 33 | 337 | 0.0 | 1.7 | 0.00 | 0.00 | 0.00 | 57 | 2101.5 |
| 20260504110240 | 33 | 90 | 0.0 | 0.0 | 0.00 | 0.00 | 0.00 | 55 | 2101.8 |
| 20260504100539 | 34 | 337 | 0.0 | 0.0 | 0.00 | 0.00 | 0.00 | 52 | 2102.3 |
| 20260504100438 | 34 | 337 | 0.0 | 0.0 | 0.00 | 0.00 | 0.00 | 51 | 2102.3 |
| 20260504081437 | 33 | 330 | 0.9 | 1.7 | 0.00 | 0.00 | 0.00 | 55 | 2103.8 |
| 20260504080537 | 33 | 329 | 1.7 | 3.5 | 0.00 | 0.00 | 0.00 | 57 | 2103.6 |
| 20260504050532 | 41 | 337 | 0.0 | 0.0 | 0.00 | 0.00 | 0.00 | 42 | 2106.3 |
| 20260504050430 | 41 | 337 | 0.0 | 0.0 | 0.00 | 0.00 | 0.00 | 41 | 2106.4 |
| 20260504045432 | 42 | 337 | 0.0 | 0.9 | 0.00 | 0.00 | 0.00 | 40 | 2106.5 |
| 20260504044432 | 42 | 315 | 1.7 | 1.7 | 0.00 | 0.00 | 0.00 | 39 | 2106.5 |
| 20260504043432 | 42 | 315 | 1.7 | 2.6 | 0.00 | 0.00 | 0.00 | 39 | 2106.8 |
| 20260504042431 | 43 | 315 | 1.7 | 2.6 | 0.00 | 0.00 | 0.00 | 41 | 2106.9 |
| 20260504042332 | 43 | 315 | 1.7 | 2.6 | 0.00 | 0.00 | 0.00 | 40 | 2107.0 |
| 20260504041430 | 43 | 337 | 1.7 | 2.6 | 0.00 | 0.00 | 0.00 | 39 | 2107.3 |
| 20260504035530 | 42 | 316 | 2.6 | 3.5 | 0.00 | 0.00 | 0.00 | 41 | 2107.1 |
| 20260504035431 | 42 | 318 | 2.6 | 4.3 | 0.00 | 0.00 | 0.00 | 41 | 2107.1 |
| 20260504034431 | 43 | 315 | 1.7 | 1.7 | 0.00 | 0.00 | 0.00 | 39 | 2107.1 |
| 20260504033431 | 44 | 315 | 0.9 | 0.9 | 0.00 | 0.00 | 0.00 | 37 | 2107.1 |
| 20260504032529 | 44 | 337 | 1.7 | 2.6 | 0.00 | 0.00 | 0.00 | 38 | 2107.3 |
| 20260504031534 | 44 | 337 | 0.9 | 1.7 | 0.00 | 0.00 | 0.00 | 36 | 2106.9 |
| 20260504025532 | 44 | 337 | 1.7 | 2.6 | 0.00 | 0.00 | 0.00 | 37 | 2107.0 |
| 20260504023530 | 46 | 315 | 0.0 | 0.0 | 0.00 | 0.00 | 0.00 | 34 | 2106.5 |